Flag for U.S.A. Weather past 2 weeks in Bridgeport, Connecticut, U.S.A.

Now
77 °F

Scattered clouds.


Feels Like: 79 °F
Forecast: 67 / 77 °F
Wind: 6 mph from Southwest

Location: Sikorsky Memorial Airport

Current Time: Sep 21, 2014 at 4:43:14 PM

Latest Report: Sep 21, 2014 at 3:52 PM


Visibility: 10 mi

Pressure: 29.69 "Hg

Humidity: 77%

Dew point: 69 °F

Location of BridgeportLocation

Historic Weather in Bridgeport — Graph

°F

Bridgeport temperature yesterday

Maximum temperature yesterday: 74 °F (at 2:52 PM)
Minimum temperature yesterday: 56 °F (at 5:52 AM)
Average temperature yesterday: 66 °F

Past Weeks' High & Low Weather Summary

 TemperatureHumidityPressure
High88 °F (Sep 6, 2:52 PM)100% (Sep 21, 4:52 AM)30.39 "Hg (Sep 21, 4:52 AM)
Low50 °F (Sep 15, 5:52 AM)32% (Sep 18, 4:52 PM)29.71 "Hg (Sep 21, 2:52 PM)
Average66 °F69%30.11 "Hg
* Reported Sep 6 2:52 PM — Sep 21 2:52 PM, Bridgeport, Weather by CustomWeather, © 2014

Note: Actual official high and low records may vary slightly from our data, if they occured in-between our weather recording intervals... More about our weather records

Advertising

Bridgeport weather history for previous 24 hours

 ConditionsComfort  
Time TempWeatherWind HumidityBarometerVisibility
2:52 PM
Sep 21
75 °FScattered clouds.3 mph85%29.71 "Hg10 mi
1:52 PM74 °FSunny.No wind88%29.75 "Hg10 mi
12:52 PM74 °FSunny.6 mph85%29.79 "Hg10 mi
11:52 AM74 °FOvercast.6 mph85%29.82 "Hg10 mi
10:52 AM73 °FPartly sunny.7 mph84%29.85 "Hg10 mi
9:52 AM73 °FBroken clouds.6 mph90%29.88 "Hg10 mi
8:59 AM71 °FLight rain. Fog.6 mph93%29.89 "Hg6 mi
7:52 AM70 °FScattered clouds.3 mph93%29.91 "Hg10 mi
6:52 AM68 °FLight rain. Fog.6 mph96%29.91 "Hg6 mi
6:02 AM67 °FLight rain. Fog.6 mph97%29.92 "Hg3 mi
5:52 AM67 °FLight rain. Fog.3 mph97%29.93 "Hg6 mi
4:52 AM67 °FLight rain. Low clouds.No wind100%29.95 "Hg10 mi
4:01 AM67 °FHeavy rain. Fog.6 mph97%29.95 "Hg2 mi
2:52 AM67 °FLight rain. Fog.6 mph93%29.97 "Hg4 mi
2:02 AM68 °FLight rain. Fog.No wind90%30.02 "Hg4 mi
1:52 AM68 °FRain. Fog.3 mph90%30.02 "Hg2 mi
12:52 AM69 °FOvercast.No wind84%30.06 "Hg10 mi
11:52 PM
Sep 20
69 °FOvercast.7 mph84%30.07 "Hg10 mi
10:52 PM69 °FMostly cloudy.3 mph84%30.09 "Hg10 mi
9:52 PM68 °FPassing clouds.6 mph84%30.11 "Hg10 mi
8:52 PM68 °FClear.7 mph82%30.13 "Hg10 mi
7:52 PM70 °FSunny.13 mph73%30.13 "Hg10 mi
6:52 PM70 °FSunny.10 mph68%30.13 "Hg10 mi
5:52 PM72 °FPartly sunny.14 mph61%30.15 "Hg10 mi
4:52 PM73 °FOvercast.14 mph57%30.17 "Hg10 mi
Weather by CustomWeather, © 2014

See weather overviewHow to use our weather pages